Date String (YYYY-MM-DD hh:mm:ss) UTC,Instrument flags,Ambient pressure (hPa),Sample flow (lpm),Bypass flow (lpm),Sample temperature (°C),Ambient temperature (°C),ASC tube jacket temperature (°C),LED temperature (°C),Box temperature (°C),Sample RH (%),Span deviation,Mass concentration (μg/m³),Mass concentration (μg/m³),Mass concentration (μg/m³)
DateTimeUTC,F1_M11,P_M11,Q1_M11,Q2_M11,T1_M11,T2_M11,T3_M11,T4_M11,T5_M11,U1_M11,ZSPAN_M11,X0_M11,X2_M11,X1_M11
2021-11-27 14:00:00,,0829.5,5.00,0.00,25.0,24.0,00.0,34.3,26.7,09.5,0000.0,0008.60,0003.33,0002.28
2021-11-27 14:01:00,,0829.5,5.01,0.00,25.0,24.0,00.0,34.2,26.7,09.6,0000.0,0009.14,0003.40,0002.38
2021-11-27 14:02:00,,0829.5,5.00,0.00,25.0,24.1,00.0,34.2,26.7,09.6,0000.0,0009.39,0003.46,0002.46
2021-11-27 14:03:00,,0829.6,4.99,0.00,25.0,24.1,00.0,34.2,26.7,09.6,0000.0,0009.35,0003.49,0002.54
2021-11-27 14:04:00,,0829.6,5.00,0.00,25.0,24.1,00.0,34.2,26.7,09.5,0000.0,0009.52,0003.54,0002.61
2021-11-27 14:05:00,,0829.5,5.00,0.00,25.0,24.0,00.0,34.2,26.6,09.5,0000.0,0009.63,0003.58,0002.67
2021-11-27 14:06:00,,0829.6,5.01,0.00,24.9,24.0,00.0,34.2,26.6,09.6,0000.0,0009.40,0003.58,0002.71
2021-11-27 14:07:00,,0829.5,5.00,0.00,24.9,24.0,00.0,34.1,26.5,09.6,0000.0,0009.23,0003.61,0002.76
2021-11-27 14:08:00,,0829.5,5.01,0.00,24.9,23.9,00.0,34.1,26.6,09.6,0000.0,0008.78,0003.63,0002.81
2021-11-27 14:09:00,,0829.5,4.99,0.00,24.8,23.9,00.0,34.1,26.5,09.5,0000.0,0008.55,0003.58,0002.82
2021-11-27 14:10:00,,0829.5,5.01,0.00,24.8,23.9,00.0,34.1,26.5,09.5,0000.0,0008.33,0003.53,0002.81
2021-11-27 14:11:00,,0829.5,4.99,0.00,24.8,23.9,00.0,34.0,26.5,09.5,0000.0,0008.11,0003.52,0002.80
2021-11-27 14:12:00,,0829.5,5.00,0.00,24.8,23.9,00.0,34.0,26.5,09.5,0000.0,0008.10,0003.51,0002.79
2021-11-27 14:13:00,,0829.5,4.99,0.00,24.8,23.8,00.0,34.0,26.4,09.5,0000.0,0008.05,0003.53,0002.79
2021-11-27 14:14:00,,0829.6,5.00,0.00,24.7,23.8,00.0,34.0,26.4,09.5,0000.0,0008.02,0003.52,0002.76
2021-11-27 14:15:00,,0829.6,5.00,0.00,24.7,23.8,00.0,34.0,26.4,09.4,0000.0,0007.57,0003.48,0002.71
2021-11-27 14:16:00,,0829.6,4.99,0.00,24.7,23.8,00.0,33.9,26.3,09.4,0000.0,0007.58,0003.45,0002.64
2021-11-27 14:17:00,,0829.6,5.01,0.00,24.7,23.7,00.0,33.9,26.3,09.5,0000.0,0007.52,0003.40,0002.58
2021-11-27 14:18:00,,0829.6,4.99,0.00,24.6,23.7,00.0,33.9,26.3,09.5,0000.0,0007.45,0003.35,0002.53
2021-11-27 14:19:00,,0829.6,5.01,0.00,24.6,23.7,00.0,33.9,26.3,09.5,0000.0,0007.35,0003.31,0002.49
2021-11-27 14:20:00,,0829.6,5.01,0.00,24.6,23.7,00.0,33.8,26.3,09.5,0000.0,0007.63,0003.34,0002.45
2021-11-27 14:21:00,,0829.6,5.00,0.00,24.6,23.6,00.0,33.8,26.3,09.5,0000.0,0008.00,0003.39,0002.42
2021-11-27 14:22:00,,0829.6,4.98,0.00,24.5,23.6,00.0,33.8,26.2,09.5,0000.0,0008.33,0003.37,0002.38
2021-11-27 14:23:00,,0829.8,5.02,0.00,24.5,23.6,00.0,33.8,26.2,09.5,0000.0,0008.21,0003.32,0002.34
2021-11-27 14:24:00,,0829.7,4.99,0.00,24.5,23.6,00.0,33.8,26.2,09.5,0000.0,0007.99,0003.24,0002.29
2021-11-27 14:25:00,,0829.8,5.01,0.00,24.5,23.6,00.0,33.7,26.2,09.5,0000.0,0007.93,0003.21,0002.25
2021-11-27 14:26:00,,0829.8,5.00,0.00,24.5,23.6,00.0,33.7,26.2,09.5,0000.0,0007.97,0003.25,0002.25
2021-11-27 14:27:00,,0830.1,5.00,0.00,24.5,23.6,00.0,33.7,26.2,09.6,0000.0,0008.28,0003.27,0002.25
2021-11-27 14:28:00,,0830.0,5.01,0.00,24.5,23.6,00.0,33.7,26.1,09.5,0000.0,0008.62,0003.29,0002.24
2021-11-27 14:29:00,,0829.7,5.00,0.00,24.4,23.6,00.0,33.7,26.1,09.5,0000.0,0009.76,0003.30,0002.21
2021-11-27 14:30:00,,0829.6,4.99,0.00,24.4,23.6,00.0,33.6,26.1,09.6,0000.0,0010.11,0003.32,0002.18
2021-11-27 14:31:00,,0829.6,5.00,0.00,24.4,23.6,00.0,33.6,26.1,09.6,0000.0,0010.36,0003.28,0002.16
2021-11-27 14:32:00,,0830.0,5.00,0.00,24.4,23.6,00.0,33.6,26.1,09.6,0000.0,0010.46,0003.22,0002.14
2021-11-27 14:33:00,,0829.7,5.00,0.00,24.4,23.6,00.0,33.6,26.1,09.6,0000.0,0010.01,0003.19,0002.12
2021-11-27 14:34:00,,0829.8,5.01,0.00,24.4,23.6,00.0,33.6,26.2,09.6,0000.0,0009.58,0003.19,0002.09
2021-11-27 14:35:00,,0829.8,4.99,0.00,24.4,23.6,00.0,33.6,26.2,09.6,0000.0,0009.59,0003.18,0002.06
2021-11-27 14:36:00,,0829.8,5.01,0.00,24.4,23.7,00.0,33.6,26.2,09.6,0000.0,0009.55,0003.18,0002.04
2021-11-27 14:37:00,,0829.8,5.00,0.00,24.4,23.7,00.0,33.6,26.2,09.6,0000.0,0009.52,0003.16,0002.02
2021-11-27 14:38:00,,0829.8,5.01,0.00,24.4,23.7,00.0,33.6,26.2,09.6,0000.0,0009.22,0003.10,0002.00
2021-11-27 14:39:00,,0829.9,5.00,0.00,24.4,23.7,00.0,33.6,26.2,09.6,0000.0,0008.90,0003.06,0001.99
2021-11-27 14:40:00,,0829.9,5.02,0.00,24.4,23.7,00.0,33.6,26.2,09.6,0000.0,0007.86,0003.02,0001.98
2021-11-27 14:41:00,,0829.9,5.00,0.00,24.4,23.7,00.0,33.5,26.1,09.6,0000.0,0007.91,0002.94,0001.96
2021-11-27 14:42:00,,0829.9,5.01,0.00,24.4,23.7,00.0,33.5,26.2,09.6,0000.0,0007.54,0002.89,0001.93
2021-11-27 14:43:00,,0829.9,4.99,0.00,24.4,23.7,00.0,33.5,26.2,09.6,0000.0,0007.26,0002.86,0001.91
2021-11-27 14:44:00,,0830.0,5.01,0.00,24.4,23.7,00.0,33.5,26.2,09.6,0000.0,0007.31,0002.84,0001.90
2021-11-27 14:45:00,,0830.0,4.99,0.00,24.4,23.7,00.0,33.5,26.2,09.6,0000.0,0007.14,0002.80,0001.88
2021-11-27 14:46:00,,0830.1,5.00,0.00,24.4,23.7,00.0,33.5,26.2,09.6,0000.0,0007.11,0002.79,0001.87
2021-11-27 14:47:00,,0830.1,5.00,0.00,24.4,23.7,00.0,33.5,26.1,09.5,0000.0,0007.00,0002.80,0001.87
2021-11-27 14:48:00,,0830.1,4.99,0.00,24.4,23.7,00.0,33.5,26.1,09.6,0000.0,0006.94,0002.78,0001.87
2021-11-27 14:49:00,,0830.1,5.01,0.00,24.4,23.7,00.0,33.5,26.1,09.6,0000.0,0006.41,0002.68,0001.83
2021-11-27 14:50:00,,0830.1,4.99,0.00,24.4,23.7,00.0,33.5,26.2,09.6,0000.0,0007.40,0002.64,0001.82
2021-11-27 14:51:00,,0830.1,5.01,0.00,24.4,23.7,00.0,33.5,26.2,09.5,0000.0,0007.64,0002.62,0001.82
2021-11-27 14:52:00,,0830.1,4.99,0.00,24.4,23.7,00.0,33.5,26.2,09.5,0000.0,0007.07,0002.69,0001.82
2021-11-27 14:53:00,,0830.1,5.00,0.00,24.4,23.7,00.0,33.5,26.2,09.5,0000.0,0007.37,0002.68,0001.82
2021-11-27 14:54:00,,0830.1,5.01,0.00,24.4,23.7,00.0,33.5,26.2,09.5,0000.0,0007.79,0002.67,0001.82
2021-11-27 14:55:00,,0830.1,4.99,0.00,24.4,23.7,00.0,33.5,26.2,09.5,0000.0,0007.85,0002.70,0001.81
2021-11-27 14:56:00,,0830.1,5.01,0.00,24.4,23.7,00.0,33.5,26.2,09.5,0000.0,0007.95,0002.76,0001.81
2021-11-27 14:57:00,,0830.1,5.00,0.00,24.4,23.7,00.0,33.5,26.2,09.5,0000.0,0008.39,0002.78,0001.79
2021-11-27 14:58:00,,0830.1,5.01,0.00,24.4,23.7,00.0,33.5,26.2,09.5,0000.0,0009.04,0002.77,0001.77
2021-11-27 14:59:00,,0830.1,5.00,0.00,24.4,23.7,00.0,33.5,26.2,09.5,0000.0,0009.73,0002.71,0001.76
